Location: Newark
(44.4167°N, 12.2000°E)
Time: 03:52:32
(UTC+00:00)

ISS - Visible Passes

Search period start: 30 September 2020 00:00
Search period end: 10 October 2020 00:00
Orbit: 419 x 421 km, 51.6° (Epoch: 30 September)

Date Brightness Start Highest point End Pass type
(mag) Time Alt. Az. Time Alt. Az. Time Alt. Az.
30 Sep -2.6 18:17:11 10° NW 18:20:17 33° NNE 18:21:08 28° NE visible
30 Sep -0.2 19:53:56 10° WNW 19:54:06 11° WNW 19:54:06 11° WNW visible
01 Oct -2.3 17:29:53 10° NW 17:32:50 27° NNE 17:35:41 11° ENE visible
01 Oct -2.1 19:06:36 10° WNW 19:08:39 34° WNW 19:08:39 34° WNW visible
02 Oct -3.6 18:19:18 10° NW 18:22:40 61° NNE 18:23:14 50° ENE visible
03 Oct -3.1 17:32:02 10° NW 17:35:16 43° NNE 17:37:52 15° E visible
03 Oct -1.6 19:08:58 10° WNW 19:10:50 25° W 19:10:50 25° W visible
04 Oct -3.3 18:21:29 10° WNW 18:24:48 55° SW 18:25:33 43° SSE visible
05 Oct -3.8 17:34:06 10° WNW 17:37:29 88° SSW 17:40:21 14° ESE visible
05 Oct -0.8 19:12:14 10° WSW 19:13:21 13° WSW 19:13:21 13° WSW visible
06 Oct -1.5 18:24:05 10° W 18:26:41 21° SW 18:28:16 15° S visible
07 Oct -2.2 17:36:23 10° WNW 17:39:28 33° SW 17:42:31 10° SSE visible
09 Oct -0.7 17:39:36 10° WSW 17:41:10 13° SW 17:42:44 10° SSW visible
